{"data":{"norad_id":43683,"intl_designator":"2018-085A","name":"BEIDOU-3 G1 (PRN 130)","alt_names":[],"object_type":"PAYLOAD","status":"ACTIVE","operator":null,"country":"PRC","launch_date":"2018-11-01","launch_site_code":"XICLF","launch_vehicle":null,"mission":null,"orbit_class":"UNKNOWN","rcs_meters":null,"size_class":null,"mass_kg":null,"dimensions":null,"purposes":["comms","nav"],"wikipedia_slug":null,"has_3d_model":false,"image_url":null,"decayed_at":null,"tle_current":{"epoch":"2026-05-25T02:47:35.782368Z","epoch_age_seconds":68504,"freshness":"FRESH","line1":"1 43683U 18085A   26145.11638637 -.00000110  00000+0  00000+0 0  9990","line2":"2 43683   2.8121  97.9984 0008007 342.3074   4.2674  1.00271462 27829","mean_motion":1.00271462,"eccentricity":0.0008007,"inclination_deg":2.8121,"raan_deg":97.9984,"arg_perigee_deg":342.3074,"mean_anomaly_deg":4.2674,"bstar":0,"rev_number":2782,"period_min":1436.1015300645,"perigee_km":35752.924136675,"apogee_km":35820.446883443,"semimajor_km":42164.822510059,"source":"CELESTRAK","updated_at":"2026-05-25T13:38:24.343932Z"}}}